DECAYED

CZ-2D DEB, 38301 (Decayed)

Orbit data source: Space-Track

CZ-2D DEB, 38301 was space debris in SSO originally from a launch on Tue, 15 Jun 2010 UTC launched from the Jiuquan Satellite Launch Center, China (JSC). Debris objects in space refer to the collection of defunct objects orbiting the Earth. Examples of debris include non-operational satellites, rocket bodies, and fragments generated from explosions, collisions, or faulty payload assembly.

Not visible in the next 10 days
Identifier
38301, 2010-027F
Orbit
Decayed
Country
Flag of CNCN / PRC
Related business
Manufacturer
Unknown
Mission
Decayed spacecraft
Bus & Motor
Unknown
Mass
Unknown
Launch date (UTC)
2010-06-15 (16 years ago)
Launch vehicle
Unknown
Launch site
Jiuquan Satellite Launch Center, China (JSC)
Object type
Payload
Rocket body
Debris
Shape & HBR
Unknown shape, 0.1 m
Radar Cross Section
Small (<0.1 m²)

Expand to show TLE details & history
Last TLE update: 5 months ago

TLE from 5 months ago
0 CZ-2D DEB
1 38301U 10027F   25335.39845226  .00733523  00000-0  41526-2 0  9995
2 38301  97.6003 209.3772 0020239 110.8312 249.5124 15.76888339818972
Epoch: 2025-12-01T09:33Z
TLE epoch observation values (Epoch: 2025-12-01T09:33:46.275Z)
Latitude
0.00006°
Longitude
-4.56414°
Altitude
347.208 km
Speed
7.698 km/s
True Right ascension
13h 57m 30s
True Declination
0° 00' 00"
Sunlit
Object was in daylight at epoch
Visualization orbit readout
Latitude
Unknown
Longitude
Unknown
Altitude
Unknown
Speed
Unknown
Apparent Right ascension
Unknown
Apparent Declination
Unknown
Sunlit
N/A
Visualization observer readout
Local Sidereal Time
23:36:55
Azimuth
Unknown
Elevation
Unknown
Doppler factor
Unknown
Orbital elements
Apogee altitude
349.751 km
Perigee altitude
322.573 km
Semi-major axis
6,714.299 km
Eccentricity
0.00202
Inclination
97.6003°
RAAN
209.3772°
Arg. of periapsis
110.8312°
True anomaly
249.29534°
Mean anomaly
249.5124°
Eccentric anomaly
249.40385°
Mean motion
3.94496 °/min
Orbital period
91.26 mins
BSTAR
0.0041526
Loading maneuver chart data...
Computing Atmospheric mass density...
Loading historical data...
Loading historical data...
Loading historical data...
Loading historical data...
Loading historical data...
Loading historical data...
Loading historical data...

Documentation

Showing up to 5 results
|